Location: Newark
(58.9986°N, 38.5006°E)
Time: 13:59:25
(UTC+00:00)

N. Korean satellite - Pass Details

Date: 15 December 2019
Orbit: 454 x 507 km, 97.2° (Epoch: 28 January)

Event Time Altitude Azimuth Distance (km) Brightness Sun altitude
Rises 02:48:18 0° 21° (NNE) 2,554 10.4 -23.9°
Reaches altitude 10° 02:50:35 10° 33° (NNE) 1,659 9.6 -23.6°
Maximum altitude 02:53:43 28° 94° (E) 914 8.6 -23.2°
Drops below altitude 10° 02:56:46 10° 156° (SSE) 1,622 9.6 -22.8°
Sets 02:58:59 0° 168° (SSE) 2,485 10.4 -22.5°
